Snowfall_Accumulation
0.8 0.9 1.2 1.2 1.3 1.5 2.1 3.2 5.5 4.4 1.1 0.2 0.3 0.1 0.2 0.1 0.1 0.3 0.2 0.1 0.4 0.6 0.6 0.5 0.3 0.2 0.3 0.3 0.2 0.1 0.1 0.0 0.0 0.0 0.0 0.0 0.0 0.0
1.0 1.2 1.4 1.2 1.2 1.4 1.8 2.3 3.6 5.5 3.7 0.5 0.3 0.1 0.1 0.1 0.1 0.3 0.2 0.2 0.3 0.3 0.4 0.4 0.3 0.1 0.2 0.2 0.2 0.1 0.0 0.1 0.0 0.0 0.0 0.0 0.0 0.0
1.2 1.5 1.5 1.5 1.6 1.6 1.8 2.2 2.5 3.8 4.6 0.9 0.3 0.1 0.2 0.3 0.2 0.1 0.1 0.1 0.1 0.1 0.2 0.3 0.3 0.2 0.2 0.1 0.2 0.1 0.1 0.0 0.0 0.0 0.0 0.0 0.0 0.0
2.1 1.8 1.6 1.6 1.7 1.7 2.1 2.1 2.0 2.2 3.9 2.8 0.5 0.3 0.3 0.4 0.3 0.2 0.1 0.1 0.1 0.1 0.1 0.2 0.2 0.3 0.3 0.4 0.3 0.2 0.1 0.1 0.1 0.1 0.1 0.0 0.0 0.0
2.4 2.7 2.3 2.3 2.2 2.0 2.4 2.3 2.1 2.0 2.8 3.7 1.7 0.6 0.5 0.4 0.4 0.2 0.1 0.1 0.0 0.0 0.0 0.1 0.2 0.2 0.3 0.4 0.4 0.3 0.2 0.2 0.2 0.2 0.2 0.0 0.0 0.0
3.4 3.3 3.3 3.9 3.4 3.2 3.7 3.6 3.3 3.4 3.3 3.7 2.7 1.7 1.3 0.7 0.7 0.9 0.7 0.5 0.3 0.0 0.1 0.1 0.1 0.1 0.2 0.2 0.3 0.4 0.4 0.4 0.6 0.5 0.4 0.3 0.3 0.2
4.2 3.7 3.3 3.0 3.8 5.0 6.5 6.7 5.7 5.8 5.6 5.5 4.6 3.3 2.5 2.1 1.9 1.6 1.8 1.1 0.8 0.4 0.4 0.3 0.2 0.2 0.1 0.2 0.2 0.2 0.4 0.5 0.6 0.7 0.6 0.5 0.5 0.5
5.0 3.9 3.2 3.7 3.5 3.1 4.0 5.1 5.3 7.9 8.9 8.4 7.4 6.2 4.0 2.7 2.1 2.7 3.3 3.6 2.9 0.9 0.9 0.9 0.5 0.5 0.2 0.2 0.2 0.3 0.4 0.6 0.8 0.8 0.9 0.7 0.7 0.7
3.8 3.8 3.9 3.5 3.8 4.1 4.6 3.4 3.5 3.8 5.5 8.4 9.5 7.3 5.5 3.7 4.0 5.2 5.0 5.6 4.4 2.0 2.6 2.6 1.0 1.0 0.6 0.2 0.3 0.4 0.5 0.6 0.8 0.8 0.9 0.9 1.0 1.0
3.3 3.7 3.7 3.8 4.0 5.3 5.9 5.6 4.5 4.3 4.8 6.5 8.8 7.9 6.5 5.7 6.4 7.8 7.7 7.0 4.3 2.3 1.9 4.8 2.0 1.4 1.0 0.5 0.2 0.3 0.5 0.6 0.8 0.9 1.0 1.1 1.2 1.3
2.8 3.5 3.9 3.6 4.0 5.5 6.8 6.9 5.2 4.2 3.5 4.1 5.7 6.6 5.7 5.4 6.2 8.0 10.2 11.2 8.6 4.0 2.4 4.7 2.8 2.2 1.3 0.9 0.6 0.5 0.4 0.7 0.7 0.9 1.1 1.1 1.3 1.4
2.6 3.0 4.4 4.7 4.7 4.9 6.2 7.1 7.3 5.0 3.9 3.6 4.0 3.9 4.8 5.6 6.2 7.4 9.1 11.8 11.8 8.9 3.7 5.3 4.8 5.0 5.4 1.8 1.0 0.7 0.6 0.5 0.6 0.8 0.8 1.2 1.4 1.5
3.7 3.5 3.9 4.5 4.4 4.4 4.9 6.3 8.3 6.4 5.2 5.0 4.5 4.1 4.6 5.5 6.4 8.5 8.6 11.7 13.8 13.3 7.9 8.5 9.9 8.4 10.1 6.8 2.3 1.5 1.0 0.9 0.7 0.6 0.6 0.8 1.2 1.6
5.5 4.1 4.1 4.2 4.2 3.9 4.1 4.3 4.7 4.9 5.5 5.5 5.1 4.7 5.1 6.2 7.0 8.6 10.4 10.8 11.4 11.0 8.7 9.7 15.0 12.9 14.0 12.1 7.2 4.4 2.7 1.6 1.3 1.3 1.1 0.7 0.9 1.0
5.5 5.4 4.8 4.0 3.4 3.4 2.7 3.1 3.9 4.8 6.0 6.3 5.6 4.7 4.6 5.4 6.0 7.0 8.5 10.4 10.3 8.8 7.2 6.8 10.4 11.4 13.7 14.1 10.1 6.4 5.0 3.4 2.3 1.9 2.0 1.5 1.7 1.4
5.5 5.7 5.0 3.6 3.4 3.2 3.1 3.3 3.8 4.9 5.9 6.5 5.4 4.2 3.8 4.6 5.7 7.1 8.9 10.2 11.8 11.2 9.2 7.5 8.9 11.1 14.1 10.9 10.4 9.2 6.0 6.0 3.7 2.9 2.4 2.1 1.7 1.8
8.3 7.6 6.8 5.5 4.8 4.4 4.2 3.6 3.6 4.2 5.6 6.1 5.3 5.5 5.4 6.0 6.6 6.7 8.7 10.5 12.5 12.3 12.9 12.3 12.0 12.2 12.8 12.1 12.4 9.4 7.7 6.8 5.4 4.5 4.4 4.4 2.7 2.2
7.9 9.1 7.7 6.3 6.1 6.1 6.1 5.6 4.6 4.5 5.0 5.9 6.5 7.0 7.0 7.1 7.7 7.3 8.5 10.6 12.2 12.4 12.9 14.0 15.2 16.1 15.7 15.6 13.6 11.0 8.0 7.6 6.5 5.5 5.0 5.8 6.1 3.4
6.5 6.8 6.3 6.1 6.2 6.2 6.1 5.9 5.5 4.8 5.4 6.6 7.4 7.0 7.4 7.7 7.9 8.1 8.5 10.0 11.3 11.9 12.2 13.5 15.8 18.8 19.4 19.6 16.4 10.5 10.0 9.1 7.7 7.1 5.7 5.9 6.5 4.9
5.1 5.6 6.1 6.1 6.1 6.2 6.3 6.0 5.6 5.1 5.9 6.4 6.8 7.2 7.6 8.2 8.8 8.4 8.7 10.3 11.4 11.7 12.2 12.7 15.3 18.2 20.9 18.9 17.6 13.6 8.7 9.3 9.0 8.1 6.5 5.4 5.0 3.8
5.4 5.7 5.7 6.6 6.5 6.6 6.7 6.9 6.3 6.2 5.7 6.2 6.5 6.9 7.3 8.2 8.6 7.9 8.4 9.5 11.1 12.0 12.4 12.4 13.0 14.4 17.0 17.1 17.7 15.7 13.3 8.7 7.0 8.3 8.1 8.6 7.9 6.9
5.1 5.4 5.4 5.8 6.1 6.4 6.7 7.0 6.6 6.2 6.0 6.2 6.4 6.3 6.9 7.7 8.3 8.3 8.8 9.8 10.3 11.0 11.5 11.0 11.4 13.3 16.3 19.5 17.6 15.1 13.9 11.7 9.6 7.0 6.2 7.0 10.9 13.2
5.7 5.8 5.7 5.6 5.9 6.2 6.5 6.8 6.6 6.3 6.0 6.4 6.6 6.4 6.7 7.5 7.5 8.0 8.5 9.0 9.8 10.1 10.9 11.4 11.6 13.2 15.9 16.9 17.5 16.2 14.5 12.4 11.0 11.0 10.7 6.6 4.6 4.5